Weather Roundup
Issued by NWS Springfield, MO

Home | Current Version | Previous Version | Text Only | Print | Product List | Glossary On
Versions: 1 2 3 4 5 6 7 8 9 10 11 12 13 14 15 16 17 18 19 20 21 22 23 24 25 26 27 28 29 30 31 32 33 34 35 36 37 38 39 40 41 42 43 44 45 46 47 48 49 50
000
NZUS99 KSGF 200659
HRRSGF

HOURLY WEATHER
NATIONAL WEATHER SERVICE SPRINGFIELD MO
100 AM CST SAT DEC 20 2014

......SGF CWA......

CITY           SKY/WX    TMP DP  RH WIND       PRES   REMARKS
SPRINGFIELD    CLOUDY    37  35  92 S8        30.18F WCI  31
JOPLIN         CLOUDY    38  38 100 W5        30.21S FOG     WCI  34
WEST PLAINS    LGT SNOW  34  31  88 SE3       30.22F FOG
ROLLA          CLOUDY    34  32  92 SE5       30.19F WCI  30
OSAGE BEACH    CLOUDY    37  34  87 S3        30.21F

......SURROUNDING SGF CWA......

CITY           SKY/WX    TMP DP  RH WIND       PRES   REMARKS
CHANUTE        CLOUDY    35  34  96 CALM      30.22R FOG
PARSONS        CLOUDY    35  35 100 CALM      30.22S FOG
COFFEYVILLE    CLOUDY    36  35  96 CALM      30.22S FOG
EMPORIA        CLOUDY    33  30  88 S7        30.19R WCI  27
SILOAM SPRINGS CLOUDY    39  34  81 NW3       30.21S
HARRISON AR    FOG       36  36 100 SE7       30.19F VSB 3/4 WCI  30
NEAR YELLVILLE CLOUDY    37  32  81 CALM      30.22

......KANSAS AND MISSOURI......

CITY           SKY/WX    TMP DP  RH WIND       PRES   REMARKS
KANSAS CTY INT FRZ RAIN  32  31  96 S3        30.19F FOG
DOWNTOWN KC    CLOUDY    34  31  88 W5        30.21F WCI  30
COLUMBIA       CLOUDY    35  33  92 SE5       30.22S FOG     WCI  31
SEDALIA        FOG       37  36  96 SE5       30.21F VSB 3/4 WCI  33
ST JOSEPH      CLOUDY    32  29  88 SW7       30.20F WCI  26
ST LOUIS       CLOUDY    36  26  67 SE6       30.27F WCI  31
SPIRIT OF STL  CLOUDY    35  28  75 SE3       30.26F
KIRKSVILLE     CLOUDY    32  31  96 SE7       30.22F FOG     WCI  26
WICHITA        CLOUDY    38  34  85 S9        30.17F WCI  31
TOPEKA         CLOUDY    34  29  82 SE6       30.20F WCI  29
OLATHE         CLOUDY    33  32  96 NW3       30.19S FOG

......TENNESSEE......

CITY           SKY/WX    TMP DP  RH WIND       PRES   REMARKS
MEMPHIS        PTCLDY    39  32  76 NE5       30.22F
NASHVILLE      CLOUDY    37  28  70 N6        30.22S WCI  32

......ARKANSAS.......

CITY           SKY/WX    TMP DP  RH WIND       PRES   REMARKS
FAYETTEVILLE   CLOUDY    40  40 100 SW3       30.20S
FT SMITH       CLOUDY    43  39  86 E3        30.23S FOG
LITTLE ROCK    CLOUDY    41  35  79 NE5       30.24F

......OKLAHOMA.......

CITY           SKY/WX    TMP DP  RH WIND       PRES   REMARKS
TULSA          CLOUDY    39  36  89 NW3       30.23F
PONCA CITY     CLOUDY    39  34  82 S3        30.21S
MCALESTER      FOG       42  41  96 N5        30.22F VSB 1/2
OKLAHOMA CITY  CLOUDY    40  37  89 S3        30.20S

......IOWA............

CITY           SKY/WX    TMP DP  RH WIND       PRES   REMARKS
DES MOINES     LGT SNOW  32  30  92 S6        30.18F FOG     WCI  26
QUAD CITIES    CLOUDY    29  24  82 E3        30.26F

......ILLINOIS........

CITY           SKY/WX    TMP DP  RH WIND       PRES   REMARKS
QUINCY         CLOUDY    31  27  85 SE6       30.24F WCI  25
CHICAGO        CLOUDY    29  23  78 CALM      30.26S




USA.gov is the U.S. government's official web portal to all federal, state and local government web resources and services.